Regional Weather Roundup
Issued by NWS

Home | Current Version | Previous Version | Graphics & Text | Print | Product List | Glossary On
Versions: 1 2 3 4 5 6 7 8 9 10 11 12 13 14 15 16 17 18 19 20 21 22 23 24 25 26 27 28 29 30 31 32 33 34 35 36 37 38 39 40 41 42 43 44 45 46 47 48 49 50
000
ASUS45 KCYS 011510
RWRWY

WYOMING REGIONAL WEATHER ROUNDUP
NATIONAL WEATHER SERVICE CHEYENNE WY
900 AM MDT MON JUN 01 2015

NOTE:  "FAIR" INDICATES FEW OR NO CLOUDS BELOW 12,000 FEET
WITH NO SIGNIFICANT WEATHER AND/OR OBSTRUCTIONS TO VISIBILITY.

WYZ001-011600-
YELLOWSTONE NATIONAL PARK

CITY           SKY/WX    TMP DP  RH WIND       PRES   REMARKS
LK YELLOWSTONE   N/A     51  40  65 CALM      30.17S
W YELLOWSTONE  NOT AVBL

$$
WYZ002>013-054>058-071-098>099-011600-
NORTHERN WYOMING

CITY           SKY/WX    TMP DP  RH WIND       PRES   REMARKS
JACKSON        SUNNY     55  46  71 CALM      30.09F
CODY           FAIR      64  45  48 S12       29.97F
GREYBULL       FAIR      69  53  56 VRB6      29.93F
WORLAND        FAIR      68  54  60 VRB3      29.95F
SHERIDAN       FAIR      71  54  54 CALM      29.91F
BUFFALO        FAIR      69  52  54 SE8       29.98F
GILLETTE       FAIR      65  56  72 S8        29.97R
HULETT         FAIR      73  54  49 S8        29.97F
NEWCASTLE      FAIR      72  52  49 SE10      30.00S

$$
WYZ014>020-022>026-101>103-011600-
CENTRAL WYOMING

CITY           SKY/WX    TMP DP  RH WIND       PRES   REMARKS
BIG PINEY      FAIR      58  43  57 SE3       30.15S
PINEDALE       FAIR      61  45  55 SE9       30.15S
DUBOIS         FAIR      55  39  54 NW7       30.12S
LANDER         FAIR      66  50  56 E10       30.01F
RIVERTON       FAIR      64  50  60 SE6       30.03F
CASPER         FAIR      71  46  40 SW15      30.05S
DOUGLAS        FAIR      66  54  65 SE5       30.04S

$$
WYZ021-027>030-104>119-011600-
SOUTHERN WYOMING

CITY           SKY/WX    TMP DP  RH WIND       PRES   REMARKS
EVANSTON       FAIR      66  39  37 S7        30.12F
KEMMERER       FAIR      63  43  48 E3        30.15S
FORT BRIDGER   FAIR      65  43  44 CALM      30.16S
ROCK SPRINGS   LGT RAIN  70  31  23 MISG      30.12F
DIXON          PTSUNNY   63  48  57 NE9       30.19S
RAWLINS        FAIR      66  43  43 E5        30.16F
SARATOGA       FAIR      66  41  39 SE15      30.19S
LARAMIE        FAIR      63  44  50 VRB5      30.20S
CHEYENNE       FAIR      72  49  44 SW7       30.13S
TORRINGTON     FAIR      62  56  80 SE7       30.02R
PINE BLUFFS    FAIR      66  54  63 S9        30.10S

$$


USA.gov is the U.S. government's official web portal to all federal, state and local government web resources and services.